sat.trackr.live / text

‹ back to catalog

COSMOS 2437

NORAD 32954 · 2008-025B

PAYLOAD ACTIVE UNKNOWN

§ Identity

Operator
Country
CIS
Launch date
2008-05-23
Launch site
PLMSC
Launch vehicle
Mass (kg)
RCS (m²)
0.87

External: N2YO · Heavens-Above · Gunter

§ Orbital elements

Epoch: 2026-05-25T04:51:47.251008Z

Period
115.87 min
Inclination
82.5041°
Eccentricity
0.0021167
Mean motion
12.42758777 rev/d
Perigee alt
1,478.3 km
Apogee alt
1,511.6 km
Semi-major
7,873.1 km
B*
-2.4570e-4
RAAN
11.7574°
Arg perigee
21.9199°
Mean anomaly
116.2895°
Rev number
81,651

§ Raw data

COSMOS 24371 32954U 08025B   26145.20263022 -.00000024  00000+0 -24570-3 0  99912 32954  82.5041  11.7574 0021167  21.9199 116.2895 12.42758777816511

JSON: /api/v1/satellites/32954 · /tle

For live sub-satellite position, see the globe view (requires WebGL).

§ Visibility from observer

Set your observer location to see the next 7 days of passes ≥ 10°. The values pass through the URL so the page stays shareable.

No JS? Fill the form by hand. The geolocation button needs JavaScript.